Location: Newark
(12.6500°N, 8.0000°W)
Time: 23:13:14
(UTC+00:00)

OTV 5 (USA 277) - Visible Passes

Search period start: 24 March 2019 00:00
Search period end: 03 April 2019 00:00
Orbit: 315 x 320 km, 54.5° (Epoch: 14 March)

Date Brightness Start Highest point End Pass type
(mag) Time Alt. Az. Time Alt. Az. Time Alt. Az.
26 Mar ? 05:23:42 10° SSE 05:25:11 14° ESE 05:26:39 10° E visible
27 Mar ? 05:37:53 17° SSW 05:39:46 71° ESE 05:42:26 10° NE visible
28 Mar ? 05:53:21 16° W 05:54:25 20° NW 05:56:30 10° N visible
